Nogales, AZ

2:28 PM MST on August 24, 2016 (GMT -0700)
Nogales International

Weather History for KOLS - May, 2013

Change the Weather History Date:

Sunday, May 26, 2013

  Actual Average (KTUS) Record (KTUS)
Temperature  
Mean Temperature 72 °F 79 °F  
Max Temperature 90 °F 95 °F 107 °F (1951)
Min Temperature 53 °F 63 °F 44 °F (1916)
Degree Days  
Heating Degree Days 0 0  
Month to date heating degree days 3  
Since 1 July heating degree days 1509  
Cooling Degree Days 6 14  
Month to date cooling degree days 273  
Year to date cooling degree days 427  
Growing Degree Days 22 (Base 50)    
Moisture  
Dew Point 16 °F    
Average Humidity 14    
Maximum Humidity 30    
Minimum Humidity 5    
Precipitation  
Precipitation 0.00 in 0.01 in 0.44 in (1926)
Month to date precipitation 0.19  
Year to date precipitation 3.03  
Sea Level Pressure  
Sea Level Pressure 29.87 in    
Wind  
Wind Speed 8 mph (SSE)    
Max Wind Speed 20 mph    
Max Gust Speed 28 mph    
Visibility 10 miles    
Events      
T = Trace of Precipitation, MM = Missing Value Source: NWS Daily Summary

Daily Weather History Graph

Daily Weather History Graph

Search for Another Location

Airport or City:

Trip Planner

Search our weather history database for the weather conditions in past years. The results will help you decide how hot, cold, wet, or windy it might be!

Date:

Astronomy

May. 26, 2013 Rise Set
Actual Time 5:21 AM MST 7:19 PM MST
Civil Twilight 4:53 AM MST 7:47 PM MST
Nautical Twilight 4:20 AM MST 8:20 PM MST
Astronomical Twilight 3:45 AM MST 8:55 PM MST
Moon 9:12 PM MST (5/26) 6:53 AM MST (5/26)
Length of Visible Light 14h 53m
Length of Day
13h 58m
Waning Gibbous, 96% of the Moon is Illuminated
May 26
Waning Gibbous
May 31
Last Quarter
Jun 8
New
Jun 16
First Quarter
Jun 23
Full

Hourly Weather History & Observations

Time (MST) Temp. Dew Point Humidity Pressure Visibility Wind Dir Wind Speed Gust Speed Precip Events Conditions
12:54 AM 60.1 °F 21.9 °F 23% 29.86 in 10.0 mi ENE 4.6 mph - N/A   Clear
1:54 AM 57.9 °F 21.9 °F 25% 29.86 in 10.0 mi East 5.8 mph - N/A   Clear
2:54 AM 57.0 °F 23.0 °F 27% 29.87 in 10.0 mi East 5.8 mph - N/A   Clear
3:54 AM 55.0 °F 21.9 °F 28% 29.87 in 10.0 mi ENE 4.6 mph - N/A   Clear
4:54 AM 53.1 °F 21.9 °F 30% 29.88 in 10.0 mi Variable 3.5 mph - N/A   Clear
5:54 AM 53.1 °F 21.0 °F 29% 29.89 in 10.0 mi ENE 4.6 mph - N/A   Clear
6:54 AM 63.0 °F 23.0 °F 22% 29.88 in 10.0 mi Calm Calm - N/A   Clear
7:54 AM 71.1 °F 26.1 °F 19% 29.89 in 10.0 mi SSE 5.8 mph - N/A   Clear
8:54 AM 79.0 °F 17.1 °F 10% 29.89 in 10.0 mi South 9.2 mph 17.3 mph N/A   Clear
9:54 AM 82.9 °F 10.0 °F 6% 29.89 in 10.0 mi SSW 16.1 mph 21.9 mph N/A   Clear
10:54 AM 84.0 °F 12.9 °F 7% 29.89 in 10.0 mi SSW 8.1 mph 20.7 mph N/A   Clear
11:54 AM 87.1 °F 10.9 °F 6% 29.88 in 10.0 mi SW 18.4 mph 25.3 mph N/A   Clear
12:54 PM 89.1 °F 12.0 °F 6% 29.88 in 10.0 mi SW 17.3 mph 27.6 mph N/A   Clear
1:54 PM 90.0 °F 9.0 °F 5% 29.88 in 10.0 mi SW 19.6 mph 26.5 mph N/A   Clear
2:54 PM 89.1 °F 10.0 °F 5% 29.87 in 10.0 mi South 15.0 mph 27.6 mph N/A   Clear
3:54 PM 89.1 °F 10.0 °F 5% 29.85 in 10.0 mi SW 18.4 mph 26.5 mph N/A   Clear
4:54 PM 88.0 °F 9.0 °F 5% 29.83 in 10.0 mi South 11.5 mph 20.7 mph N/A   Clear
5:54 PM 87.1 °F 10.0 °F 6% 29.83 in 10.0 mi South 12.7 mph 21.9 mph N/A   Clear
6:54 PM 82.9 °F 12.0 °F 7% 29.83 in 10.0 mi South 10.4 mph - N/A   Clear
7:54 PM 77.0 °F 12.9 °F 9% 29.84 in 10.0 mi South 6.9 mph - N/A   Clear
8:54 PM 73.9 °F 16.0 °F 11% 29.84 in 10.0 mi SSW 3.5 mph - N/A   Clear
9:54 PM 72.0 °F 16.0 °F 12% 29.86 in 10.0 mi South 3.5 mph - N/A   Clear
10:54 PM 64.9 °F 16.0 °F 15% 29.86 in 10.0 mi East 5.8 mph - N/A   Clear
11:54 PM 63.0 °F 16.0 °F 16% 29.86 in 10.0 mi East 6.9 mph - N/A   Clear